Date,TemperatureHighF,TemperatureAvgF,TemperatureLowF,DewpointHighF,DewpointAvgF,DewpointLowF,HumidityHigh,HumidityAvg,HumidityLow,PressureMaxIn,PressureMinIn,WindSpeedMaxMPH,WindSpeedAvgMPH,GustSpeedMaxMPH,PrecipitationSumIn
2014-1-1,19,8,-4,12,2,-8,88,78,64,30.32,30.01,20,3,20,0.00
2014-1-2,5,-3,-8,-2,-8,-11,84,79,68,30.38,29.90,21,6,21,0.00
2014-1-3,1,-4,-9,-2,-8,-13,85,84,81,30.26,29.73,25,7,25,0.00
2014-1-4,25,7,-15,20,2,-20,87,83,78,30.37,30.10,19,3,19,0.00
2014-1-5,34,22,7,32,16,4,95,78,55,30.22,30.00,11,1,11,0.00
2014-1-6,52,43,31,52,41,22,98,95,70,30.00,29.12,32,7,33,0.00
2014-1-7,31,16,6,22,4,-8,91,58,37,29.96,29.23,36,10,36,0.00
2014-1-8,21,12,5,4,0,-7,80,59,45,30.29,29.95,22,5,28,0.00
2014-1-9,32,14,3,32,4,-2,82,65,39,30.54,30.26,23,3,23,0.00
2014-1-10,28,11,-1,26,7,-5,92,85,78,30.50,30.26,7,1,7,0.00
2014-1-11,52,47,26,51,46,24,98,97,90,30.20,29.10,34,10,34,0.00
2014-1-12,49,43,35,49,35,25,98,75,53,29.77,29.08,29,7,29,0.00
2014-1-13,43,38,32,40,30,24,92,74,58,30.00,29.77,20,5,20,0.28
2014-1-14,47,44,41,45,42,40,97,94,90,29.82,29.42,23,5,23,1.10
2014-1-15,45,39,31,40,37,30,97,93,74,29.93,29.49,16,3,16,0.04
2014-1-16,39,37,30,38,35,29,96,93,90,29.85,29.78,8,1,8,0.00
2014-1-17,44,37,32,40,34,30,94,90,78,29.86,29.79,18,2,18,0.00
2014-1-18,34,31,28,31,29,26,96,92,80,29.83,29.56,10,1,10,0.04
2014-1-19,33,30,27,32,28,23,95,92,86,29.60,29.32,21,4,25,0.00
2014-1-20,36,28,9,29,23,-2,90,80,58,29.74,29.35,23,6,23,0.00
2014-1-21,16,8,2,2,-3,-7,72,61,44,29.98,29.74,15,3,16,0.00
2014-1-22,9,5,2,4,-2,-6,81,73,66,29.87,29.48,18,7,24,0.00
2014-1-23,19,7,-4,7,-1,-9,81,70,58,29.95,29.72,15,3,18,0.00
2014-1-24,16,6,-2,3,-3,-7,82,69,50,30.08,29.94,13,2,13,0.00
2014-1-25,39,33,2,34,28,-3,95,84,64,29.94,29.11,32,11,36,0.00
2014-1-26,27,16,7,25,5,-7,90,64,40,29.82,29.10,33,6,33,0.00
2014-1-27,44,29,14,40,20,-3,94,70,35,29.83,29.34,31,8,31,0.00
2014-1-28,20,14,8,4,-4,-10,65,44,30,30.18,29.83,22,4,22,0.00
2014-1-29,24,17,13,2,-1,-6,57,44,29,30.12,29.77,17,4,17,0.00
2014-1-30,28,19,10,20,7,-3,83,61,41,30.32,30.02,15,4,15,0.00
2014-1-31,38,32,26,27,20,14,86,62,43,30.07,29.85,28,6,28,0.00
2014-2-1,40,31,20,32,24,16,91,74,46,30.26,29.94,10,1,18,0.00
2014-2-2,44,38,32,37,34,29,93,86,72,29.94,29.74,16,2,16,0.00
2014-2-3,33,29,18,29,18,14,88,66,48,30.20,29.94,14,3,14,0.00
2014-2-4,33,22,11,18,14,8,88,71,43,30.35,30.19,11,2,11,0.00
2014-2-5,24,23,22,17,14,11,76,67,60,30.30,30.16,12,2,12,0.00
2014-2-6,22,15,7,17,12,4,90,85,78,30.15,29.82,11,1,12,0.00
2014-2-7,32,17,2,32,10,-1,88,74,54,30.09,29.99,13,2,13,0.00
2014-2-8,30,19,5,12,8,0,86,63,40,30.12,30.02,15,2,15,0.00
2014-2-9,28,20,11,17,9,4,89,63,43,30.10,29.89,10,1,10,0.00
2014-2-10,24,19,9,18,12,1,90,74,59,30.08,29.81,20,3,20,0.00
2014-2-11,23,10,-5,7,-1,-10,87,62,39,30.29,30.07,15,4,19,0.00
2014-2-12,31,13,-2,8,-2,-10,79,54,25,30.44,30.28,12,2,12,0.00
2014-2-13,32,24,5,31,21,1,97,88,66,30.34,29.13,13,4,37,0.00
2014-2-14,36,31,25,35,26,18,97,81,67,29.54,28.58,25,8,38,0.00
2014-2-15,35,27,17,29,22,14,95,83,64,29.81,29.33,20,2,20,0.00
2014-2-16,26,21,13,23,16,4,94,79,54,29.79,29.25,32,8,32,0.00
2014-2-17,26,16,6,4,0,-4,72,51,33,30.25,29.79,30,5,30,0.00
2014-2-18,32,18,-6,30,13,-11,96,79,58,30.29,29.78,14,2,16,0.00
2014-2-19,32,30,22,32,29,20,97,95,92,29.98,29.62,14,1,14,0.00
2014-2-20,47,36,29,36,31,24,97,82,42,30.12,29.65,20,4,21,0.00
2014-2-21,46,36,33,46,35,31,98,96,93,30.11,29.53,25,3,25,0.00
2014-2-22,45,38,30,35,31,24,97,77,52,29.79,29.62,32,7,32,0.00
2014-2-23,43,40,36,33,28,20,81,63,45,29.85,29.64,18,5,18,0.00
2014-2-24,39,30,17,23,12,3,68,47,34,29.76,29.55,27,5,27,0.00
2014-2-25,25,18,12,8,4,1,66,54,39,29.82,29.71,21,5,21,0.00
2014-2-26,26,17,1,18,7,-3,87,66,49,29.82,29.61,23,4,23,0.00
2014-2-27,32,15,-2,32,6,-7,88,68,46,29.76,29.51,15,2,15,0.00
2014-2-28,24,14,7,10,-2,-10,87,50,24,30.36,29.65,20,5,27,0.00
2014-3-1,33,21,0,26,11,-8,77,67,50,30.37,29.95,23,5,23,0.00
2014-3-2,32,28,19,22,13,3,67,53,39,29.95,29.88,17,3,17,0.00
2014-3-3,21,14,8,3,-1,-4,59,51,35,30.01,29.91,14,3,14,0.00
2014-3-4,24,19,-5,14,8,-11,75,61,33,30.27,30.15,16,3,16,0.00
2014-3-5,22,15,7,10,4,-6,84,62,41,30.42,30.18,15,4,15,0.00
2014-3-6,34,17,2,-1,-8,-14,59,37,12,30.53,30.41,10,2,16,0.00
2014-3-7,36,22,0,26,14,-4,91,71,44,30.42,29.88,18,2,18,0.00
2014-3-8,52,33,17,32,22,14,92,66,34,29.88,29.58,20,3,20,0.00
2014-3-9,38,28,20,15,8,-2,65,43,25,29.83,29.73,20,4,20,0.00
2014-3-10,35,27,21,25,17,-1,82,67,34,29.79,29.58,10,1,10,0.00
2014-3-11,49,38,31,39,32,25,96,79,61,29.61,29.41,17,3,17,0.00
2014-3-12,40,34,28,35,29,25,95,81,68,29.65,29.02,9,2,28,0.00
2014-3-13,31,16,11,29,13,7,93,89,84,29.70,28.94,27,7,29,0.00
2014-3-14,35,20,5,28,13,0,85,73,51,30.02,29.70,25,5,25,0.00
2014-3-15,44,39,34,39,34,28,94,85,73,29.81,29.53,22,6,25,0.00
2014-3-16,35,25,12,32,8,-7,92,51,31,30.11,29.65,30,8,30,0.00
2014-3-17,32,16,6,32,-4,-7,61,42,26,30.12,29.94,19,3,19,0.00
2014-3-18,39,22,5,17,3,-4,80,49,18,30.29,30.06,13,2,13,0.00
2014-3-19,41,29,14,26,18,10,87,67,43,30.33,30.00,12,1,12,0.00
2014-3-20,44,36,33,43,33,24,96,88,69,30.01,29.39,19,2,19,0.00
2014-3-21,43,36,29,30,22,19,88,59,44,29.85,29.53,29,8,29,0.00
2014-3-22,38,32,23,34,25,17,94,75,47,29.91,29.55,19,4,19,0.00
2014-3-23,39,29,13,27,14,-2,84,57,28,29.98,29.77,23,5,23,0.00
2014-3-24,30,18,6,2,-2,-6,62,43,28,30.02,29.89,23,5,23,0.00
2014-3-25,34,21,4,24,9,0,86,62,35,30.05,29.94,22,3,22,0.32
2014-3-26,32,27,21,22,15,9,88,62,40,29.96,29.35,48,9,48,0.01
2014-3-27,35,26,15,26,5,-4,71,41,25,30.15,29.66,31,7,33,0.00
2014-3-28,43,39,33,42,34,26,96,83,71,30.13,29.83,30,6,30,0.01
2014-3-29,54,44,35,42,37,34,96,78,50,30.19,29.87,16,3,16,0.07
2014-3-30,37,35,32,36,33,30,96,95,91,30.08,29.64,31,8,31,1.20
2014-3-31,36,33,31,31,29,27,91,85,76,29.90,29.64,35,10,35,0.00
2014-4-1,51,39,32,27,20,7,80,49,18,30.01,29.84,27,7,27,0.00
2014-4-2,46,34,26,32,19,10,89,57,32,30.05,29.96,11,2,11,0.00
2014-4-3,51,38,23,34,25,21,94,64,34,30.06,29.91,17,3,17,0.00
2014-4-4,50,38,27,34,24,18,93,60,32,30.10,29.92,13,2,13,0.11
2014-4-5,49,41,35,45,37,25,97,88,61,29.94,29.50,24,4,24,0.47
2014-4-6,51,41,34,27,22,17,66,48,26,30.06,29.71,27,7,27,0.00
2014-4-7,58,42,28,36,28,20,84,59,32,30.15,29.97,18,2,18,0.00
2014-4-8,50,44,39,49,43,35,97,96,82,29.98,29.20,22,3,22,1.41
2014-4-9,55,43,33,44,29,15,97,60,27,29.81,29.26,26,6,26,0.00
2014-4-10,48,40,28,33,26,16,66,58,39,30.02,29.81,31,9,32,0.00
2014-4-11,69,51,42,46,40,32,91,69,37,29.91,29.80,29,5,29,0.06
2014-4-12,66,51,41,41,34,25,87,57,23,30.15,29.88,25,4,25,0.00
2014-4-13,45,41,37,43,36,28,95,81,53,30.27,29.94,16,2,16,0.15
2014-4-14,62,51,41,53,47,40,97,87,73,29.94,29.76,38,9,38,0.00
2014-4-15,55,52,50,52,50,48,97,93,86,29.82,29.49,27,10,44,0.39
2014-4-16,50,34,26,48,24,12,96,68,33,30.56,29.52,29,6,29,0.36
2014-4-17,44,31,23,24,19,13,85,63,33,30.77,30.56,11,2,17,0.00
2014-4-18,45,34,23,32,28,20,92,77,58,30.62,30.16,14,2,14,0.00
2014-4-19,59,42,30,37,30,23,93,65,37,30.30,30.04,21,4,31,0.00
2014-4-20,55,40,28,34,26,20,90,60,30,30.43,30.25,21,4,21,0.00
2014-4-21,53,44,36,41,36,26,93,75,37,30.25,29.73,24,5,24,0.00
2014-4-22,58,47,36,46,41,34,94,82,56,29.74,29.38,14,2,14,0.00
2014-4-23,64,49,42,53,44,34,97,81,54,29.38,29.27,29,4,29,0.27
2014-4-24,51,44,40,36,34,0,83,66,51,29.76,29.35,39,11,39,0.00
2014-4-25,63,46,36,35,33,24,87,63,23,29.86,29.76,20,4,20,0.00
2014-4-26,48,41,37,41,38,33,94,89,68,29.83,29.76,9,1,9,0.33
2014-4-27,56,45,38,45,39,35,95,81,57,29.88,29.78,14,3,18,0.02
2014-4-28,51,46,41,40,37,34,83,73,65,30.22,29.87,28,6,28,0.00
2014-4-29,56,44,36,38,34,31,83,69,45,30.49,30.22,25,4,25,0.00
2014-4-30,43,39,37,37,35,32,93,84,77,30.51,30.21,14,2,14,0.03
2014-5-1,54,46,38,52,44,37,97,95,92,30.21,29.58,13,2,13,1.13
2014-5-2,65,54,46,52,46,38,97,76,40,29.68,29.50,24,3,24,0.01
2014-5-3,49,44,41,42,40,38,92,85,76,29.69,29.66,3,0,3,0.00
2014-5-4,56,47,43,49,44,40,95,88,68,29.65,29.36,9,2,21,0.55
2014-5-5,63,54,44,45,41,36,92,63,40,29.68,29.43,21,5,21,0.00
2014-5-6,64,49,40,48,41,36,91,74,45,29.88,29.68,21,3,21,0.21
2014-5-7,68,52,38,42,38,33,89,62,32,30.08,29.88,23,4,23,0.00
2014-5-8,72,52,32,41,34,27,93,55,19,30.15,30.01,17,3,17,0.00
2014-5-9,62,51,43,43,35,25,83,57,30,30.19,30.02,11,2,11,0.00
2014-5-10,64,54,48,59,51,43,97,91,79,30.03,29.60,23,5,23,0.35
2014-5-11,77,66,50,57,44,34,82,48,22,29.89,29.60,26,4,26,0.00
2014-5-12,66,52,43,49,44,38,93,74,51,30.10,29.88,21,2,21,0.00
2014-5-13,60,48,36,42,38,33,89,69,43,30.26,30.10,15,3,15,0.00
2014-5-14,54,46,36,45,42,33,94,86,72,30.29,30.23,16,2,16,0.00
2014-5-15,66,54,42,57,50,41,96,87,71,30.26,30.17,24,3,24,0.00
2014-5-16,67,58,52,56,53,50,94,84,68,30.19,30.04,22,4,22,0.00
2014-5-17,54,52,47,53,50,47,98,96,90,30.04,29.87,27,3,27,0.50
2014-5-18,61,54,48,54,51,47,98,90,70,29.99,29.92,11,2,11,0.29
2014-5-19,57,51,48,52,49,47,97,92,74,29.92,29.84,21,4,21,0.71
2014-5-20,69,56,49,54,51,48,96,84,55,29.89,29.83,19,4,19,0.06
2014-5-21,66,55,48,56,51,46,96,87,66,29.92,29.87,9,1,9,0.00
2014-5-22,68,55,47,55,51,46,98,85,61,29.90,29.81,14,2,14,0.01
2014-5-23,63,52,45,52,48,43,97,85,62,29.92,29.82,7,1,12,0.00
2014-5-24,60,50,43,50,45,41,97,84,67,29.99,29.90,11,1,11,0.00
2014-5-25,63,53,45,52,48,44,96,83,65,30.01,29.90,17,3,17,0.01
2014-5-26,77,62,49,61,55,47,97,80,54,29.90,29.61,22,4,22,0.10
2014-5-27,59,49,44,58,48,43,97,96,93,29.96,29.69,11,1,11,0.59
2014-5-28,56,47,40,46,43,37,97,88,60,30.12,29.92,14,2,14,0.12
2014-5-29,66,50,33,48,39,32,97,71,33,30.16,30.06,13,2,13,0.01
2014-5-30,48,40,37,47,39,35,97,95,93,30.07,29.99,7,0,7,0.00
2014-5-31,68,55,42,48,40,32,97,64,30,30.17,30.02,4,1,13,0.00
2014-6-1,73,58,42,48,42,39,90,59,33,30.25,30.13,7,3,14,0.00
2014-6-2,73,59,43,54,49,41,95,72,44,30.14,29.95,8,2,16,0.00
2014-6-3,68,60,48,55,48,40,94,68,43,29.99,29.89,14,3,14,0.00
2014-6-4,54,52,50,52,50,49,97,96,93,29.89,29.73,8,0,8,0.14
2014-6-5,58,55,52,58,54,51,99,97,92,29.73,29.53,10,1,12,0.38
2014-6-6,78,65,54,60,56,53,97,75,47,29.70,29.50,15,4,22,0.00
2014-6-7,87,71,55,61,57,53,95,67,35,29.80,29.70,21,2,21,0.00
2014-6-8,84,68,55,64,59,53,96,74,47,29.83,29.77,13,2,13,0.00
2014-6-9,90,69,54,66,59,52,95,73,39,29.85,29.78,16,2,16,0.00
2014-6-10,74,63,52,64,57,50,95,82,64,30.03,29.84,19,2,19,0.00
2014-6-11,74,56,48,55,50,47,97,82,43,30.11,30.03,6,1,13,0.01
2014-6-12,64,58,54,59,52,47,96,80,60,30.16,30.08,10,1,10,0.07
2014-6-13,58,54,52,54,52,50,97,92,83,30.09,29.75,20,2,20,1.76
2014-6-14,74,63,54,65,58,53,98,87,69,29.76,29.70,11,1,11,0.04
2014-6-15,80,66,56,61,55,48,95,70,42,29.92,29.75,22,3,22,0.02
2014-6-16,82,64,50,54,48,42,89,60,30,30.03,29.92,19,2,19,0.00
2014-6-17,73,60,53,61,54,49,91,82,64,30.00,29.92,12,1,12,0.00
2014-6-18,82,68,56,69,61,56,98,80,52,29.80,29.53,9,4,26,0.47
2014-6-19,82,74,54,60,48,40,90,42,25,29.87,29.75,22,4,22,0.00
2014-6-20,72,60,48,47,43,40,86,58,34,29.84,29.77,21,2,21,0.00
2014-6-21,76,60,46,53,48,43,90,68,40,29.83,29.75,16,2,16,0.00
2014-6-22,77,60,47,55,50,45,93,71,44,29.96,29.81,13,2,13,0.00
2014-6-23,76,61,46,60,50,44,97,71,39,30.08,29.96,15,3,17,0.00
2014-6-24,69,63,55,58,55,51,90,76,60,30.07,29.89,25,6,25,0.00
2014-6-25,75,64,58,66,60,56,96,85,73,29.89,29.81,22,3,22,0.12
2014-6-26,63,59,56,61,56,52,98,91,76,29.90,29.72,22,4,22,2.50
2014-6-27,85,66,49,56,51,46,93,63,32,30.10,29.89,18,2,18,0.00
2014-6-28,88,67,47,61,53,45,93,65,28,30.17,30.09,11,2,16,0.00
2014-6-29,89,70,52,62,55,49,93,63,36,30.14,29.98,18,3,18,0.00
2014-6-30,70,59,54,64,55,52,96,89,76,29.98,29.91,6,1,6,0.00
2014-7-1,81,71,62,70,65,60,94,83,69,29.79,29.68,9,4,21,0.00
2014-7-2,80,71,65,72,67,63,97,86,75,29.88,29.68,9,5,21,0.15
2014-7-3,81,70,63,73,67,63,98,92,72,29.91,29.82,6,2,14,0.02
2014-7-4,76,68,63,72,66,62,98,93,77,29.92,29.70,6,3,19,0.79
2014-7-5,71,62,55,62,56,50,96,83,51,29.73,29.51,10,6,28,2.01
2014-7-6,81,70,60,61,58,55,87,65,46,29.79,29.70,10,6,26,0.00
2014-7-7,76,68,54,66,63,53,96,82,62,29.72,29.60,22,5,22,0.04
2014-7-8,80,71,63,72,67,62,98,87,70,29.67,29.58,19,4,19,0.01
2014-7-9,80,71,64,68,65,61,98,82,64,29.82,29.55,24,7,24,0.00
2014-7-10,86,73,59,66,62,55,93,70,38,30.07,29.80,15,2,15,0.00
2014-7-11,85,66,53,59,55,51,95,70,36,30.15,30.07,9,2,15,0.00
2014-7-12,83,66,51,66,58,50,97,77,49,30.13,30.04,15,2,15,0.00
2014-7-13,76,67,58,66,62,57,98,84,67,30.04,29.80,28,6,28,0.00
2014-7-14,84,73,65,72,66,59,96,82,44,29.81,29.74,22,5,26,0.00
2014-7-15,70,68,66,70,67,65,99,98,95,29.79,29.68,24,4,24,0.27
2014-7-16,68,67,64,68,66,64,99,99,99,29.74,29.69,17,1,17,1.33
2014-7-17,83,70,59,69,63,57,100,82,54,29.95,29.73,0,0,0,0.00
2014-7-18,84,67,55,62,58,54,97,75,44,30.15,29.95,0,0,0,0.00
2014-7-19,85,67,54,66,59,52,97,76,45,30.20,30.14,0,0,0,0.00
2014-7-20,78,66,56,65,60,54,97,82,55,30.16,30.10,0,0,0,0.00
2014-7-21,80,65,52,65,59,51,98,82,59,30.13,30.06,0,0,0,0.00
2014-7-22,79,67,55,69,62,54,98,85,65,30.07,29.86,0,0,0,0.00
2014-7-23,81,71,62,72,67,60,98,88,75,29.86,29.65,0,0,0,0.00
2014-7-24,78,68,59,68,63,57,97,85,56,29.79,29.64,0,0,0,0.16
2014-7-25,84,72,53,64,59,51,96,67,43,29.85,29.77,0,0,0,0.00
2014-7-26,78,66,54,66,61,53,98,83,59,29.86,29.77,0,0,0,0.00
2014-7-27,72,64,56,67,62,55,98,94,83,29.78,29.61,0,0,0,0.26
2014-7-28,68,66,63,68,65,63,99,98,94,29.62,29.39,0,0,0,0.71
2014-7-29,79,67,59,64,61,58,99,82,55,29.86,29.40,0,0,0,0.00
2014-7-30,75,63,55,66,60,54,98,91,70,29.97,29.86,0,0,0,0.00
2014-7-31,78,64,58,66,61,57,98,89,61,30.07,29.97,0,0,0,0.00
2014-8-1,80,68,58,68,64,57,98,87,60,30.15,30.06,0,0,0,0.01
2014-8-2,77,66,59,69,63,58,98,89,66,30.16,30.07,0,0,0,0.00
2014-8-3,76,64,54,64,59,53,98,85,65,30.07,29.97,0,0,0,0.00
2014-8-4,81,66,55,67,61,54,98,85,56,29.97,29.90,0,0,0,0.00
2014-8-5,84,70,57,69,63,56,98,80,47,29.93,29.79,0,0,0,0.00
2014-8-6,79,68,62,70,64,61,98,90,69,29.79,29.66,0,0,0,0.28
2014-8-7,84,70,56,63,59,55,97,71,47,29.81,29.71,0,0,0,0.01
2014-8-8,85,68,56,63,59,54,95,76,43,29.90,29.79,0,0,0,0.02
2014-8-9,84,68,57,65,61,55,97,78,48,29.98,29.89,0,0,0,0.01
2014-8-10,86,68,56,64,59,54,96,76,45,30.05,29.98,0,0,0,0.00
2014-8-11,82,67,55,68,61,54,98,84,59,30.07,30.03,0,0,0,0.01
2014-8-12,76,66,61,66,62,60,98,89,69,30.09,30.03,0,0,0,0.00
2014-8-13,61,60,60,60,60,59,98,97,97,30.03,29.96,0,0,0,0.00
2014-8-14,74,66,58,67,61,56,99,87,69,29.75,29.54,0,0,0,0.48
2014-8-15,73,63,52,62,58,51,98,86,60,29.80,29.74,0,0,0,0.01
2014-8-16,74,62,51,60,57,49,97,84,56,29.84,29.77,0,0,0,0.00
2014-8-17,75,64,58,64,60,56,98,87,65,29.82,29.65,0,0,0,0.05
2014-8-18,77,65,55,60,56,52,96,76,51,29.75,29.63,0,0,0,0.02
2014-8-19,82,64,51,60,55,49,95,75,44,29.87,29.74,0,0,0,0.00
2014-8-20,83,65,52,65,57,50,96,78,47,29.99,29.87,0,0,0,0.00
2014-8-21,77,63,52,65,58,51,97,85,60,30.05,29.97,0,0,0,0.01
2014-8-22,75,65,56,63,59,54,94,81,60,30.07,30.02,0,0,0,0.01
2014-8-23,79,64,53,61,57,51,96,78,48,30.06,30.02,0,0,0,0.00
2014-8-24,88,69,51,68,60,50,97,75,43,30.05,29.97,0,0,0,0.00
2014-8-25,89,72,60,70,64,58,96,78,51,30.04,29.98,0,0,0,0.00
2014-8-26,77,68,59,69,63,58,98,87,70,30.06,29.91,0,0,0,0.00
2014-8-27,83,71,60,71,66,58,97,84,67,29.91,29.72,0,0,0,0.00
2014-8-28,70,68,66,65,63,61,87,83,77,29.74,29.70,0,0,0,0.00
2014-8-29,77,62,52,53,50,45,89,67,37,30.17,29.83,0,0,0,0.00
2014-8-30,67,58,45,60,53,44,97,84,66,30.21,30.02,0,0,0,0.00
2014-8-31,77,68,62,70,64,60,97,89,76,30.02,29.84,0,0,0,0.29
2014-9-1,86,72,64,76,68,63,99,88,62,29.87,29.81,0,0,0,0.05
2014-9-2,74,68,61,69,66,61,98,92,81,29.85,29.65,0,0,0,0.00
2014-9-3,86,73,61,68,62,56,98,72,43,29.95,29.56,0,0,0,0.01
2014-9-4,80,66,53,62,57,52,96,74,46,30.08,29.95,0,0,0,0.00
2014-9-5,84,68,55,70,62,54,98,82,59,30.04,29.83,0,0,0,0.00
2014-9-6,81,71,63,73,68,62,97,90,77,29.84,29.61,0,0,0,0.10
2014-9-7,78,65,53,62,54,48,97,73,38,30.13,29.78,0,0,0,0.01
2014-9-8,72,57,45,55,46,36,96,71,32,30.34,30.13,0,0,0,0.01
2014-9-9,71,55,41,54,48,40,97,79,47,30.35,30.16,0,0,0,0.01
2014-9-10,72,58,47,60,54,46,98,87,60,30.16,29.97,0,0,0,0.01
2014-9-11,68,60,54,63,59,53,98,95,78,29.97,29.67,0,0,0,0.12
2014-9-12,69,58,49,60,49,43,95,73,49,30.17,29.74,0,0,0,0.00
2014-9-13,65,53,42,55,47,39,96,81,60,30.24,30.00,0,0,0,0.06
2014-9-14,66,56,42,56,47,40,97,76,49,30.14,29.98,0,0,0,0.01
2014-9-15,67,51,38,50,43,36,95,76,43,30.15,30.01,0,0,0,0.00
2014-9-16,61,54,46,56,51,45,96,91,75,30.02,29.86,0,0,0,0.06
2014-9-17,71,55,44,54,48,43,98,81,43,29.92,29.85,0,0,0,0.01
2014-9-18,72,55,42,56,46,35,98,74,48,30.07,29.81,0,0,0,0.01
2014-9-19,62,46,34,37,32,23,89,63,23,30.34,30.07,0,0,0,0.00
2014-9-20,61,52,33,56,46,30,96,80,66,30.32,29.98,0,0,0,0.00
2014-9-21,73,62,57,67,60,55,98,94,82,29.98,29.46,0,0,0,0.16
2014-9-22,72,62,49,64,53,38,99,77,47,29.92,29.38,0,0,0,0.02
2014-9-23,67,52,41,52,44,37,94,76,48,30.32,29.92,0,0,0,0.00
2014-9-24,64,50,39,50,43,38,98,79,50,30.58,30.31,0,0,0,0.01
2014-9-25,67,50,38,54,44,36,98,85,51,30.50,30.17,0,0,0,0.01
2014-9-26,77,57,40,61,51,39,98,83,56,30.17,30.04,0,0,0,0.01
2014-9-27,86,66,51,66,58,50,97,77,42,30.07,30.01,0,0,0,0.01
2014-9-28,80,64,51,65,58,50,98,84,55,30.06,29.86,0,0,0,0.00
2014-9-29,74,58,51,62,55,50,98,90,65,29.99,29.84,0,0,0,0.03
2014-9-30,58,54,50,54,52,49,96,93,86,29.99,29.94,0,0,0,0.02
2014-10-1,63,57,54,56,53,51,95,87,76,30.09,29.97,0,0,0,0.00
2014-10-2,66,55,45,51,48,43,94,79,51,30.13,30.05,0,0,0,0.00
2014-10-3,66,52,41,54,48,40,97,85,58,30.08,29.84,0,0,0,0.01
2014-10-4,60,56,53,59,56,52,98,97,94,29.84,29.51,0,0,0,0.12
2014-10-5,66,58,43,59,52,41,98,84,49,29.82,29.44,0,0,0,0.46
2014-10-6,62,49,36,53,42,34,98,78,44,30.12,29.82,0,0,0,0.00
2014-10-7,63,58,43,59,53,41,97,86,71,30.12,29.94,0,0,0,0.00
2014-10-8,66,61,54,61,57,48,97,87,70,29.94,29.56,0,0,0,0.07
2014-10-9,61,54,47,49,40,34,85,60,40,29.83,29.68,0,0,0,0.00
2014-10-10,62,49,36,44,39,33,94,72,39,30.03,29.83,0,0,0,0.00
2014-10-11,57,43,36,46,40,34,96,89,61,30.07,29.97,0,0,0,0.00
2014-10-12,63,46,35,45,38,33,96,76,39,30.21,30.01,0,0,0,0.01
2014-10-13,62,48,32,53,43,30,97,82,51,30.26,30.14,0,0,0,0.01
2014-10-14,67,60,55,62,57,53,95,89,83,30.15,30.05,0,0,0,0.00
2014-10-15,72,63,59,66,61,58,98,92,80,30.05,29.95,0,0,0,0.00
2014-10-16,67,63,62,66,62,61,98,97,93,29.95,29.67,0,0,0,0.94
2014-10-17,64,60,56,62,58,54,98,93,82,29.68,29.48,0,0,0,0.50
2014-10-18,60,57,51,58,56,50,97,95,90,29.57,29.39,0,0,0,0.29
2014-10-19,54,47,41,51,38,31,97,75,50,29.76,29.42,0,0,0,0.01
2014-10-20,52,42,35,37,31,26,91,65,41,29.92,29.76,0,0,0,0.00
2014-10-21,55,48,36,53,46,33,97,93,83,30.02,29.92,0,0,0,0.52
2014-10-22,50,48,47,50,46,45,97,94,91,30.05,29.91,0,0,0,0.31
2014-10-23,51,50,47,50,48,45,97,96,94,29.91,29.59,0,0,0,1.63
2014-10-24,48,47,44,47,45,43,96,95,90,29.60,29.53,0,0,0,0.11
2014-10-25,64,49,39,49,43,37,96,81,42,29.60,29.36,0,0,0,0.01
2014-10-26,60,50,40,49,44,39,98,81,56,29.49,29.23,0,0,0,0.03
2014-10-27,57,48,41,42,39,37,87,72,54,29.88,29.48,0,0,0,0.00
2014-10-28,53,48,43,51,43,39,92,83,71,30.02,29.88,0,0,0,0.00
2014-10-29,58,54,51,55,52,49,98,95,88,29.87,29.66,0,0,0,0.13
2014-10-30,56,47,38,50,41,33,96,81,59,29.90,29.70,0,0,0,0.01
2014-10-31,54,41,29,38,33,28,96,74,43,29.99,29.90,0,0,0,0.01
2014-11-1,44,41,36,41,37,34,93,88,76,29.92,29.72,0,0,0,0.31
2014-11-2,36,34,32,34,32,31,96,93,89,29.77,29.45,0,0,0,0.05
2014-11-7,45,41,36,44,38,29,97,88,71,29.51,29.26,0,0,0,0.10
2014-11-8,44,35,29,29,24,21,88,65,40,29.83,29.53,0,0,0,0.00
2014-11-9,51,41,31,41,35,28,94,79,61,29.90,29.77,0,0,0,0.00
2014-11-10,52,39,28,41,34,26,96,85,56,30.14,29.91,0,0,0,0.00
2014-11-11,56,47,31,50,44,30,98,90,74,30.13,29.92,0,0,0,0.01
2014-11-12,55,51,42,54,50,36,98,95,73,29.92,29.76,0,0,0,0.01
2014-11-13,48,39,29,36,30,27,92,73,45,29.96,29.86,0,0,0,0.01
2014-11-14,40,33,28,34,27,20,96,80,61,29.95,29.72,0,0,0,0.31
2014-11-15,35,28,22,21,18,16,89,68,46,30.21,29.95,15,3,18,0.00
2014-11-16,39,30,17,29,22,14,92,74,53,30.26,30.02,22,2,22,0.01
2014-11-17,41,36,32,40,33,26,97,88,64,30.02,29.29,15,1,15,0.60
2014-11-18,41,34,25,38,24,9,97,71,41,29.69,29.27,30,8,30,0.01
2014-11-19,36,27,22,19,13,9,80,58,33,30.00,29.68,27,5,27,0.00
2014-11-20,41,33,25,28,20,14,81,59,47,29.94,29.63,22,5,22,0.00
2014-11-21,33,26,20,15,11,6,62,52,38,30.22,29.73,27,7,27,0.00
2014-11-22,42,29,16,23,16,7,71,57,42,30.25,29.85,26,7,26,0.00
2014-11-23,57,43,32,42,34,21,97,72,50,30.07,29.86,15,3,15,0.00
2014-11-24,58,52,43,57,51,42,98,97,95,30.04,29.48,32,7,32,0.51
2014-11-25,59,53,42,54,44,30,95,74,47,29.98,29.52,20,0,20,0.01
2014-11-26,42,35,32,32,30,26,96,83,58,30.16,29.59,0,0,0,0.00
2014-11-27,32,28,23,30,27,22,96,95,91,29.95,29.54,0,0,0,0.11
2014-11-28,28,22,18,24,20,15,93,90,86,30.06,29.90,12,1,12,0.00
2014-11-29,28,19,10,21,15,8,92,85,66,30.25,30.06,10,1,10,0.01
2014-11-30,49,42,14,46,39,12,95,90,85,30.19,29.86,24,6,24,0.11
2014-12-1,60,46,30,49,37,14,86,72,44,30.36,29.84,23,6,26,0.00
2014-12-2,30,26,21,21,13,4,86,59,36,30.70,30.36,16,3,16,0.01
2014-12-3,39,32,24,38,31,21,97,95,86,30.43,29.84,13,2,13,0.74
2014-12-4,37,29,18,33,12,6,96,51,34,30.50,29.84,25,5,25,0.00
2014-12-5,35,23,12,28,15,4,85,72,55,30.68,30.44,12,2,12,0.00
2014-12-6,43,36,33,42,35,28,97,95,76,30.44,29.96,14,2,14,0.91
2014-12-7,34,24,9,33,13,0,96,66,43,30.67,30.14,24,7,28,0.01
2014-12-8,22,14,7,17,4,-4,83,63,49,30.75,30.52,20,3,20,0.00
2014-12-9,41,35,22,40,33,17,97,94,83,30.53,29.65,19,4,33,2.56
2014-12-10,40,39,38,39,37,36,97,96,95,29.63,29.30,26,6,36,0.32
2014-12-11,42,38,34,41,36,33,97,92,82,29.67,29.37,22,4,22,0.15
2014-12-12,39,35,31,37,33,29,95,93,90,29.74,29.67,7,1,10,0.00
2014-12-13,36,33,31,34,31,29,95,92,89,29.68,29.62,11,4,13,0.00
2014-12-14,43,34,29,35,30,26,92,86,70,29.77,29.64,13,2,13,0.00
2014-12-15,35,31,28,28,26,25,93,83,75,30.09,29.77,16,2,16,0.00
2014-12-16,39,34,29,38,32,26,96,91,83,30.11,29.92,9,0,9,0.00
2014-12-17,43,40,34,42,39,33,97,97,94,29.92,29.51,21,4,21,1.37
2014-12-18,36,33,30,34,31,25,96,92,83,29.69,29.51,19,4,19,0.06
2014-12-19,32,28,24,26,23,18,90,81,71,30.05,29.68,16,4,22,0.00
2014-12-20,30,24,20,23,19,17,89,82,73,30.28,30.05,17,3,17,0.00
2014-12-21,37,29,23,30,25,20,93,86,72,30.30,30.23,12,1,12,0.00
2014-12-22,37,32,27,34,30,25,96,92,86,30.35,30.28,8,1,8,0.06
2014-12-23,39,36,33,38,35,31,97,95,87,30.31,30.14,15,2,15,0.09
2014-12-24,54,41,37,54,41,36,98,97,97,30.15,29.48,18,2,18,0.87
2014-12-25,56,49,41,55,45,29,99,85,63,29.72,29.32,28,8,28,0.47
2014-12-26,49,40,32,30,29,27,82,65,45,30.00,29.72,22,5,22,0.00